DEEYI EDVE-EDDP

Flight info

Callsign DEEYI
Flight time 0h 55m
Altitude 7000
Route DCT HLZ DCT MAG DCT GOT DCT
Aircraft C172/L-SDFG/C

Departure

Time 2026-05-05 19:05
Airport Braunschweig-Wolfsburg Airport (EDVE)

Arrival

Time 2026-05-05 20:01
Airport Leipzig/Halle Airport (EDDP)
Time Latitude Longitude Altitude Speed Heading
2026-05-05 18:35 52.31685 10.56160 279 ft 0 kts 265°
2026-05-05 18:54 52.31685 10.56150 279 ft 1 kts 292°
2026-05-05 18:55 52.31696 10.56137 279 ft 2 kts 335°
2026-05-05 18:55 52.31715 10.56126 279 ft 3 kts 345°
2026-05-05 18:55 52.31740 10.56121 279 ft 4 kts 356°
2026-05-05 18:55 52.31764 10.56098 279 ft 4 kts 283°
2026-05-05 18:56 52.31762 10.56039 279 ft 5 kts 266°
2026-05-05 18:56 52.31757 10.55970 278 ft 7 kts 265°
2026-05-05 18:56 52.31752 10.55868 276 ft 10 kts 265°
2026-05-05 18:56 52.31733 10.55745 276 ft 11 kts 240°
2026-05-05 18:57 52.31710 10.55623 276 ft 11 kts 263°
2026-05-05 18:57 52.31702 10.55487 276 ft 12 kts 264°
2026-05-05 18:57 52.31689 10.55331 272 ft 15 kts 261°
2026-05-05 18:57 52.31681 10.55161 272 ft 14 kts 258°
2026-05-05 18:58 52.31675 10.54983 269 ft 16 kts 249°
2026-05-05 18:58 52.31662 10.54808 269 ft 15 kts 268°
2026-05-05 18:58 52.31652 10.54621 265 ft 17 kts 264°
2026-05-05 18:58 52.31662 10.54449 262 ft 12 kts 307°
2026-05-05 18:59 52.31689 10.54424 261 ft 0 kts 354°
2026-05-05 19:02 52.31690 10.54424 261 ft 0 kts 353°
2026-05-05 19:02 52.31706 10.54422 260 ft 4 kts 354°
2026-05-05 19:02 52.31751 10.54415 259 ft 8 kts 356°
2026-05-05 19:02 52.31819 10.54411 259 ft 10 kts
2026-05-05 19:03 52.31855 10.54456 261 ft 3 kts 74°
2026-05-05 19:03 52.31857 10.54474 262 ft 0 kts 84°
2026-05-05 19:03 52.31859 10.54530 263 ft 23 kts 87°
2026-05-05 19:04 52.31887 10.55048 270 ft 65 kts 84°
2026-05-05 19:04 52.31903 10.55829 406 ft 70 kts 91°
2026-05-05 19:04 52.31923 10.56660 551 ft 67 kts 57°
2026-05-05 19:04 52.32066 10.57384 658 ft 71 kts 78°
2026-05-05 19:05 52.32046 10.58222 722 ft 86 kts 85°
2026-05-05 19:05 52.32055 10.59230 845 ft 89 kts 79°
2026-05-05 19:05 52.32166 10.60237 968 ft 91 kts 75°
2026-05-05 19:05 52.32293 10.61259 1098 ft 92 kts 73°
2026-05-05 19:06 52.32408 10.62286 1222 ft 92 kts 76°
2026-05-05 19:06 52.32532 10.63316 1342 ft 93 kts 72°
2026-05-05 19:06 52.32648 10.64344 1471 ft 91 kts 75°
2026-05-05 19:06 52.32716 10.64966 1539 ft 92 kts 73°
2026-05-05 19:07 52.32820 10.65985 1668 ft 91 kts 75°
2026-05-05 19:07 52.32920 10.66987 1799 ft 88 kts 75°
2026-05-05 19:07 52.33036 10.67968 1923 ft 88 kts 76°
2026-05-05 19:07 52.33165 10.68940 2053 ft 86 kts 66°
2026-05-05 19:08 52.33349 10.69875 2179 ft 86 kts 65°
2026-05-05 19:08 52.33551 10.70786 2299 ft 86 kts 65°
2026-05-05 19:08 52.33758 10.71700 2424 ft 86 kts 66°
2026-05-05 19:08 52.33973 10.72609 2547 ft 86 kts 64°
2026-05-05 19:09 52.34184 10.73524 2677 ft 86 kts 66°
2026-05-05 19:09 52.34351 10.74228 2774 ft 86 kts 65°
2026-05-05 19:09 52.34558 10.75148 2902 ft 86 kts 66°
2026-05-05 19:09 52.34771 10.76070 3029 ft 86 kts 65°
2026-05-05 19:10 52.34988 10.76998 3155 ft 87 kts 65°
2026-05-05 19:10 52.35206 10.77917 3281 ft 87 kts 65°
2026-05-05 19:10 52.35312 10.78880 3392 ft 91 kts 95°
2026-05-05 19:10 52.35011 10.79818 3518 ft 94 kts 118°
2026-05-05 19:11 52.34627 10.80627 3709 ft 88 kts 120°
2026-05-05 19:11 52.34253 10.81378 3901 ft 82 kts 120°
2026-05-05 19:11 52.33903 10.82068 4090 ft 77 kts 120°
2026-05-05 19:11 52.33572 10.82716 4276 ft 71 kts 120°
2026-05-05 19:12 52.33271 10.83305 4458 ft 64 kts 118°
2026-05-05 19:12 52.32911 10.83738 4550 ft 75 kts 150°
2026-05-05 19:12 52.32455 10.83956 4725 ft 67 kts 148°
2026-05-05 19:12 52.31955 10.84267 4737 ft 85 kts 166°
2026-05-05 19:13 52.31380 10.84530 4844 ft 88 kts 153°
2026-05-05 19:13 52.30785 10.84883 4930 ft 94 kts 153°
2026-05-05 19:13 52.30154 10.85270 5013 ft 98 kts 153°
2026-05-05 19:13 52.29504 10.85684 5094 ft 102 kts 153°
2026-05-05 19:14 52.28840 10.86114 5174 ft 104 kts 153°
2026-05-05 19:14 52.28168 10.86553 5284 ft 103 kts 153°
2026-05-05 19:14 52.27511 10.86984 5406 ft 101 kts 153°
2026-05-05 19:14 52.26861 10.87411 5528 ft 99 kts 152°
2026-05-05 19:15 52.26224 10.87827 5650 ft 98 kts 153°
2026-05-05 19:15 52.25602 10.88232 5770 ft 96 kts 152°
2026-05-05 19:15 52.24978 10.88634 5892 ft 95 kts 152°
2026-05-05 19:15 52.24368 10.89021 6013 ft 94 kts 153°
2026-05-05 19:16 52.23757 10.89413 6137 ft 93 kts 152°
2026-05-05 19:16 52.23157 10.89805 6261 ft 92 kts 152°
2026-05-05 19:16 52.22568 10.90197 6387 ft 91 kts 152°
2026-05-05 19:16 52.21986 10.90589 6514 ft 90 kts 152°
2026-05-05 19:17 52.21403 10.90983 6639 ft 90 kts 152°
2026-05-05 19:17 52.20831 10.91374 6741 ft 91 kts 152°
2026-05-05 19:17 52.20237 10.91783 6817 ft 95 kts 152°
2026-05-05 19:17 52.19601 10.92235 6824 ft 104 kts 152°
2026-05-05 19:18 52.18912 10.92735 6823 ft 111 kts 152°
2026-05-05 19:18 52.18198 10.93254 6822 ft 115 kts 153°
2026-05-05 19:18 52.17456 10.93797 6821 ft 117 kts 152°
2026-05-05 19:18 52.16716 10.94337 6819 ft 118 kts 153°
2026-05-05 19:19 52.15961 10.94891 6818 ft 119 kts 152°
2026-05-05 19:19 52.15204 10.95444 6814 ft 118 kts 153°
2026-05-05 19:19 52.14453 10.95995 6813 ft 116 kts 152°
2026-05-05 19:19 52.13726 10.96522 6815 ft 114 kts 153°
2026-05-05 19:20 52.13009 10.97047 6819 ft 113 kts 152°
2026-05-05 19:20 52.12291 10.97568 6822 ft 112 kts 153°
2026-05-05 19:20 52.11578 10.98087 6824 ft 112 kts 152°
2026-05-05 19:20 52.10871 10.98602 6823 ft 111 kts 153°
2026-05-05 19:21 52.10171 10.99117 6824 ft 111 kts 152°
2026-05-05 19:21 52.09459 10.99640 6821 ft 112 kts 152°
2026-05-05 19:21 52.09033 10.99952 6823 ft 112 kts 153°
2026-05-05 19:21 52.08330 11.00474 6821 ft 112 kts 152°
2026-05-05 19:22 52.07615 11.00999 6821 ft 112 kts 152°
2026-05-05 19:22 52.06911 11.01513 6822 ft 112 kts 152°
2026-05-05 19:22 52.06195 11.02030 6823 ft 112 kts 152°
2026-05-05 19:22 52.05485 11.02535 6823 ft 112 kts 152°
2026-05-05 19:23 52.04776 11.03038 6825 ft 111 kts 152°
2026-05-05 19:23 52.04061 11.03557 6827 ft 111 kts 152°
2026-05-05 19:23 52.03352 11.04070 6831 ft 111 kts 152°
2026-05-05 19:23 52.02652 11.04586 6833 ft 111 kts 152°
2026-05-05 19:24 52.01942 11.05113 6828 ft 111 kts 152°
2026-05-05 19:24 52.01247 11.05627 6822 ft 111 kts 152°
2026-05-05 19:24 52.00539 11.06159 6819 ft 111 kts 152°
2026-05-05 19:24 51.99839 11.06685 6815 ft 111 kts 152°
2026-05-05 19:25 51.99136 11.07208 6808 ft 111 kts 152°
2026-05-05 19:25 51.98433 11.07723 6805 ft 111 kts 152°
2026-05-05 19:25 51.97727 11.08236 6806 ft 111 kts 151°
2026-05-05 19:25 51.97023 11.08747 6806 ft 111 kts 152°
2026-05-05 19:26 51.96320 11.09257 6810 ft 111 kts 151°
2026-05-05 19:26 51.95610 11.09778 6810 ft 111 kts 151°
2026-05-05 19:26 51.94908 11.10296 6811 ft 111 kts 152°
2026-05-05 19:26 51.94202 11.10825 6810 ft 111 kts 151°
2026-05-05 19:27 51.93506 11.11344 6810 ft 111 kts 151°
2026-05-05 19:27 51.92801 11.11873 6808 ft 111 kts 151°
2026-05-05 19:27 51.92106 11.12398 6810 ft 110 kts 151°
2026-05-05 19:27 51.91407 11.12928 6805 ft 110 kts 151°
2026-05-05 19:28 51.90714 11.13446 6799 ft 110 kts 151°
2026-05-05 19:28 51.90021 11.13964 6800 ft 110 kts 151°
2026-05-05 19:28 51.89325 11.14475 6805 ft 110 kts 151°
2026-05-05 19:28 51.88621 11.14991 6806 ft 110 kts 152°
2026-05-05 19:29 51.87919 11.15508 6809 ft 110 kts 151°
2026-05-05 19:29 51.87221 11.16020 6810 ft 110 kts 151°
2026-05-05 19:29 51.86526 11.16533 6808 ft 110 kts 151°
2026-05-05 19:29 51.85829 11.17050 6810 ft 110 kts 151°
2026-05-05 19:30 51.85129 11.17569 6811 ft 110 kts 150°
2026-05-05 19:30 51.84426 11.18092 6812 ft 110 kts 151°
2026-05-05 19:30 51.83728 11.18622 6811 ft 111 kts 150°
2026-05-05 19:30 51.83038 11.19148 6811 ft 111 kts 151°
2026-05-05 19:31 51.82341 11.19680 6809 ft 110 kts 150°
2026-05-05 19:31 51.81648 11.20214 6805 ft 110 kts 150°
2026-05-05 19:31 51.80951 11.20752 6808 ft 109 kts 151°
2026-05-05 19:31 51.80262 11.21282 6808 ft 109 kts 150°
2026-05-05 19:32 51.79577 11.21803 6810 ft 109 kts 150°
2026-05-05 19:32 51.78887 11.22322 6810 ft 110 kts 150°
2026-05-05 19:32 51.78196 11.22837 6806 ft 110 kts 150°
2026-05-05 19:32 51.77500 11.23356 6808 ft 110 kts 150°
2026-05-05 19:33 51.76807 11.23873 6808 ft 110 kts 150°
2026-05-05 19:33 51.76111 11.24398 6805 ft 110 kts 150°
2026-05-05 19:33 51.75417 11.24925 6804 ft 110 kts 150°
2026-05-05 19:33 51.74719 11.25457 6803 ft 110 kts 150°
2026-05-05 19:34 51.74023 11.25991 6800 ft 111 kts 150°
2026-05-05 19:34 51.73334 11.26518 6796 ft 110 kts 150°
2026-05-05 19:34 51.72642 11.27050 6796 ft 110 kts 150°
2026-05-05 19:35 51.71257 11.28111 6795 ft 110 kts 150°
2026-05-05 19:35 51.70564 11.28640 6798 ft 110 kts 150°
2026-05-05 19:35 51.69878 11.29156 6796 ft 110 kts 150°
2026-05-05 19:35 51.69178 11.29686 6797 ft 110 kts 150°
2026-05-05 19:36 51.68482 11.30212 6795 ft 110 kts 150°
2026-05-05 19:36 51.67797 11.30730 6798 ft 110 kts 149°
2026-05-05 19:36 51.67101 11.31256 6795 ft 110 kts 150°
2026-05-05 19:36 51.66406 11.31781 6795 ft 109 kts 150°
2026-05-05 19:37 51.65720 11.32296 6794 ft 109 kts 150°
2026-05-05 19:37 51.65034 11.32817 6793 ft 109 kts 150°
2026-05-05 19:37 51.64350 11.33338 6794 ft 109 kts 150°
2026-05-05 19:37 51.63666 11.33867 6794 ft 109 kts 150°
2026-05-05 19:38 51.62988 11.34398 6797 ft 108 kts 149°
2026-05-05 19:38 51.62301 11.34910 6794 ft 109 kts 152°
2026-05-05 19:38 51.61607 11.35411 6800 ft 109 kts 150°
2026-05-05 19:38 51.60919 11.35914 6800 ft 109 kts 150°
2026-05-05 19:39 51.60228 11.36420 6799 ft 109 kts 150°
2026-05-05 19:39 51.59534 11.36931 6798 ft 109 kts 150°
2026-05-05 19:39 51.58838 11.37441 6796 ft 110 kts 150°
2026-05-05 19:39 51.58150 11.37947 6793 ft 109 kts 150°
2026-05-05 19:40 51.57567 11.38683 6791 ft 106 kts 129°
2026-05-05 19:40 51.57062 11.39565 6784 ft 106 kts 128°
2026-05-05 19:40 51.56572 11.40451 6782 ft 106 kts 127°
2026-05-05 19:40 51.56084 11.41345 6783 ft 106 kts 127°
2026-05-05 19:41 51.55596 11.42233 6785 ft 106 kts 127°
2026-05-05 19:41 51.55101 11.43127 6785 ft 106 kts 127°
2026-05-05 19:41 51.54613 11.44009 6785 ft 106 kts 127°
2026-05-05 19:41 51.54120 11.44900 6786 ft 106 kts 127°
2026-05-05 19:42 51.53634 11.45775 6789 ft 106 kts 127°
2026-05-05 19:42 51.53146 11.46661 6794 ft 106 kts 127°
2026-05-05 19:42 51.52657 11.47552 6794 ft 106 kts 127°
2026-05-05 19:42 51.52165 11.48435 6798 ft 106 kts 127°
2026-05-05 19:43 51.51677 11.49318 6803 ft 106 kts 127°
2026-05-05 19:43 51.51188 11.50212 6801 ft 107 kts 126°
2026-05-05 19:43 51.50696 11.51112 6799 ft 107 kts 127°
2026-05-05 19:43 51.50204 11.52015 6798 ft 107 kts 127°
2026-05-05 19:44 51.49718 11.52912 6798 ft 106 kts 127°
2026-05-05 19:44 51.49229 11.53814 6798 ft 106 kts 126°
2026-05-05 19:44 51.48793 11.54755 6796 ft 105 kts 118°
2026-05-05 19:44 51.48406 11.55754 6793 ft 104 kts 118°
2026-05-05 19:45 51.48032 11.56739 6795 ft 104 kts 117°
2026-05-05 19:45 51.47647 11.57744 6789 ft 105 kts 117°
2026-05-05 19:45 51.47270 11.58731 6787 ft 105 kts 117°
2026-05-05 19:45 51.46885 11.59737 6785 ft 105 kts 117°
2026-05-05 19:46 51.46501 11.60729 6782 ft 104 kts 117°
2026-05-05 19:46 51.46116 11.61730 6715 ft 110 kts 117°
2026-05-05 19:46 51.45697 11.62830 6525 ft 120 kts 117°
2026-05-05 19:46 51.45262 11.63986 6327 ft 125 kts 117°
2026-05-05 19:47 51.44810 11.65197 6140 ft 127 kts 117°
2026-05-05 19:47 51.44357 11.66403 5946 ft 127 kts 118°
2026-05-05 19:47 51.43898 11.67614 5756 ft 126 kts 118°
2026-05-05 19:47 51.43450 11.68807 5597 ft 125 kts 118°
2026-05-05 19:48 51.43005 11.69984 5449 ft 122 kts 119°
2026-05-05 19:48 51.42562 11.71137 5312 ft 122 kts 117°
2026-05-05 19:48 51.42107 11.72280 5169 ft 121 kts 118°
2026-05-05 19:48 51.41645 11.73416 5010 ft 122 kts 117°
2026-05-05 19:49 51.41188 11.74566 4861 ft 122 kts 118°
2026-05-05 19:49 51.40883 11.75323 4759 ft 122 kts 117°
2026-05-05 19:49 51.40282 11.76849 4568 ft 121 kts 118°
2026-05-05 19:49 51.39828 11.77992 4395 ft 122 kts 116°
2026-05-05 19:50 51.39372 11.79127 4246 ft 121 kts 118°
2026-05-05 19:50 51.38965 11.80295 4099 ft 120 kts 109°
2026-05-05 19:50 51.38835 11.81565 3953 ft 116 kts 81°
2026-05-05 19:50 51.38975 11.82808 3866 ft 111 kts 78°
2026-05-05 19:51 51.39100 11.83959 3939 ft 99 kts 79°
2026-05-05 19:51 51.39206 11.85010 3985 ft 95 kts 79°
2026-05-05 19:51 51.39301 11.86068 3977 ft 96 kts 79°
2026-05-05 19:51 51.39385 11.87145 3959 ft 96 kts 81°
2026-05-05 19:52 51.39462 11.88196 3963 ft 95 kts 81°
2026-05-05 19:52 51.39533 11.89254 3964 ft 96 kts 81°
2026-05-05 19:52 51.39600 11.90316 3967 ft 96 kts 81°
2026-05-05 19:52 51.39665 11.91378 3972 ft 96 kts 82°
2026-05-05 19:53 51.39727 11.92450 3964 ft 95 kts 82°
2026-05-05 19:53 51.39786 11.93507 3965 ft 95 kts 81°
2026-05-05 19:53 51.39845 11.94564 3975 ft 95 kts 82°
2026-05-05 19:53 51.39903 11.95612 3964 ft 96 kts 82°
2026-05-05 19:54 51.39961 11.96702 3861 ft 101 kts 81°
2026-05-05 19:54 51.40019 11.97857 3741 ft 106 kts 82°
2026-05-05 19:54 51.40081 11.99052 3613 ft 110 kts 82°
2026-05-05 19:54 51.40144 12.00286 3418 ft 115 kts 82°
2026-05-05 19:55 51.40209 12.01576 3207 ft 117 kts 82°
2026-05-05 19:55 51.40274 12.02900 2980 ft 120 kts 82°
2026-05-05 19:55 51.40340 12.04228 2756 ft 118 kts 82°
2026-05-05 19:55 51.40399 12.05493 2520 ft 111 kts 82°
2026-05-05 19:56 51.40443 12.06685 2275 ft 104 kts 83°
2026-05-05 19:56 51.40461 12.07770 2119 ft 89 kts 84°
2026-05-05 19:56 51.40497 12.08681 2021 ft 76 kts 79°
2026-05-05 19:56 51.40521 12.09479 1947 ft 65 kts 83°
2026-05-05 19:57 51.40551 12.10182 1802 ft 66 kts 76°
2026-05-05 19:57 51.40605 12.10651 1738 ft 62 kts 72°
2026-05-05 19:57 51.40707 12.11511 1615 ft 57 kts 71°
2026-05-05 19:57 51.40756 12.12146 1553 ft 58 kts 79°
2026-05-05 19:58 51.40770 12.12797 1479 ft 59 kts 80°
2026-05-05 19:58 51.40794 12.13458 1395 ft 58 kts 79°
2026-05-05 19:58 51.40833 12.14133 1270 ft 61 kts 77°
2026-05-05 19:58 51.40878 12.14808 1162 ft 62 kts 78°
2026-05-05 19:59 51.40927 12.15486 1066 ft 62 kts 79°
2026-05-05 19:59 51.40956 12.16179 992 ft 60 kts 81°
2026-05-05 19:59 51.40975 12.16858 929 ft 60 kts 78°
2026-05-05 19:59 51.41020 12.17536 858 ft 62 kts 78°
2026-05-05 20:00 51.41060 12.18232 780 ft 64 kts 81°
2026-05-05 20:00 51.41093 12.18937 691 ft 64 kts 81°
2026-05-05 20:00 51.41123 12.19659 594 ft 64 kts 80°
2026-05-05 20:00 51.41163 12.20376 498 ft 66 kts 82°
2026-05-05 20:01 51.41189 12.21096 429 ft 61 kts 83°
2026-05-05 20:01 51.41225 12.21610 436 ft 34 kts 84°
2026-05-05 20:01 51.41232 12.21915 442 ft 23 kts 79°
2026-05-05 20:01 51.41241 12.22166 448 ft 23 kts 84°
2026-05-05 20:02 51.41256 12.22448 455 ft 28 kts 79°
2026-05-05 20:02 51.41270 12.22796 460 ft 34 kts 83°
2026-05-05 20:02 51.41282 12.23145 460 ft 23 kts 76°
2026-05-05 20:02 51.41363 12.23260 459 ft 12 kts 347°
2026-05-05 20:03 51.41429 12.23242 457 ft 6 kts 355°
2026-05-05 20:03 51.41456 12.23239 457 ft 1 kts 355°
2026-05-05 20:04 51.41463 12.23238 457 ft 3 kts 355°
2026-05-05 20:04 51.41531 12.23232 455 ft 14 kts 359°
2026-05-05 20:04 51.41614 12.23143 451 ft 16 kts 293°
2026-05-05 20:05 51.41649 12.22949 450 ft 19 kts 281°
2026-05-05 20:05 51.41687 12.22716 447 ft 23 kts 290°
2026-05-05 20:05 51.41824 12.22646 443 ft 22 kts
2026-05-05 20:05 51.41921 12.22545 439 ft 16 kts 284°
2026-05-05 20:06 51.41893 12.22437 440 ft 9 kts 199°
2026-05-05 20:06 51.41839 12.22411 441 ft 4 kts 192°
2026-05-05 20:06 51.41838 12.22411 441 ft 0 kts 191°